Time,TemperatureF,DewpointF,PressureIn,WindDirection,WindDirectionDegrees,WindSpeedMPH,WindSpeedGustMPH,Humidity,HourlyPrecipIn,Conditions,Clouds,dailyrainin,SoftwareType,DateUTC
2013-01-15 00:00:00,-4.8,-14.5,30.82,SE,132,0.0,0.0,62,0.00,,,0.00,Wunderground v.1.15,2013-01-15 07:00:00,
2013-01-15 00:02:00,-5.0,-14.7,30.82,SE,132,0.0,0.0,62,0.00,,,0.00,Wunderground v.1.15,2013-01-15 07:02:00,
2013-01-15 00:04:00,-5.0,-14.7,30.82,SE,132,0.0,0.0,62,0.00,,,0.00,Wunderground v.1.15,2013-01-15 07:04:00,
2013-01-15 00:08:00,-5.4,-15.1,30.82,SE,132,0.0,0.0,62,0.00,,,0.00,Wunderground v.1.15,2013-01-15 07:08:00,
2013-01-15 00:10:00,-5.4,-15.1,30.82,SE,132,0.0,0.0,62,0.00,,,0.00,Wunderground v.1.15,2013-01-15 07:10:00,
2013-01-15 00:14:00,-5.6,-15.3,30.82,SE,132,0.0,0.0,62,0.00,,,0.00,Wunderground v.1.15,2013-01-15 07:14:00,
2013-01-15 00:16:00,-5.6,-15.0,30.84,SE,132,0.0,0.0,63,0.00,,,0.00,Wunderground v.1.15,2013-01-15 07:16:00,
2013-01-15 00:18:00,-5.6,-15.0,30.84,SE,132,0.0,0.0,63,0.00,,,0.00,Wunderground v.1.15,2013-01-15 07:18:00,
2013-01-15 00:20:00,-5.6,-15.0,30.84,SE,132,0.0,0.0,63,0.00,,,0.00,Wunderground v.1.15,2013-01-15 07:20:00,
2013-01-15 00:22:00,-5.6,-15.0,30.84,SE,132,0.0,0.0,63,0.00,,,0.00,Wunderground v.1.15,2013-01-15 07:22:00,
2013-01-15 00:24:00,-5.6,-15.0,30.84,SE,132,0.0,0.0,63,0.00,,,0.00,Wunderground v.1.15,2013-01-15 07:24:00,
2013-01-15 00:26:00,-5.6,-15.0,30.84,SE,132,0.0,0.0,63,0.00,,,0.00,Wunderground v.1.15,2013-01-15 07:26:00,
2013-01-15 00:31:00,-5.6,-15.0,30.84,SE,132,0.0,0.0,63,0.00,,,0.00,Wunderground v.1.15,2013-01-15 07:31:00,
2013-01-15 00:32:00,-5.9,-15.2,30.84,SE,132,0.0,0.0,63,0.00,,,0.00,Wunderground v.1.15,2013-01-15 07:32:00,
2013-01-15 00:38:00,-5.9,-14.9,30.84,SE,132,0.0,0.0,64,0.00,,,0.00,Wunderground v.1.15,2013-01-15 07:38:00,
2013-01-15 00:40:00,-5.9,-14.9,30.84,SE,132,0.0,0.0,64,0.00,,,0.00,Wunderground v.1.15,2013-01-15 07:40:00,
2013-01-15 00:44:00,-6.1,-15.1,30.84,SE,132,0.0,0.0,64,0.00,,,0.00,Wunderground v.1.15,2013-01-15 07:44:00,
2013-01-15 00:46:00,-6.1,-15.1,30.85,SE,132,0.0,0.0,64,0.00,,,0.00,Wunderground v.1.15,2013-01-15 07:46:00,
2013-01-15 00:48:00,-6.1,-15.1,30.85,SE,132,0.0,0.0,64,0.00,,,0.00,Wunderground v.1.15,2013-01-15 07:48:00,
2013-01-15 00:50:00,-6.3,-15.3,30.85,SE,132,0.0,0.0,64,0.00,,,0.00,Wunderground v.1.15,2013-01-15 07:50:00,
2013-01-15 00:54:00,-6.1,-15.1,30.85,SE,132,0.0,0.0,64,0.00,,,0.00,Wunderground v.1.15,2013-01-15 07:54:00,
2013-01-15 00:56:00,-6.1,-15.1,30.85,SE,132,0.0,0.0,64,0.00,,,0.00,Wunderground v.1.15,2013-01-15 07:56:00,
2013-01-15 01:02:00,-6.1,-15.4,30.85,SE,132,0.0,0.0,63,0.00,,,0.00,Wunderground v.1.15,2013-01-15 08:02:00,
2013-01-15 01:08:00,-6.1,-15.4,30.85,SE,132,0.0,0.0,63,0.00,,,0.00,Wunderground v.1.15,2013-01-15 08:08:00,
2013-01-15 01:10:00,-6.1,-15.4,30.85,SE,132,0.0,0.0,63,0.00,,,0.00,Wunderground v.1.15,2013-01-15 08:10:00,
2013-01-15 01:14:00,-6.1,-15.4,30.85,SE,132,0.0,0.0,63,0.00,,,0.00,Wunderground v.1.15,2013-01-15 08:14:00,
2013-01-15 01:16:00,-5.9,-15.2,30.85,SE,132,0.0,0.0,63,0.00,,,0.00,Wunderground v.1.15,2013-01-15 08:16:00,
2013-01-15 01:20:00,-5.9,-15.2,30.85,SE,132,0.0,0.0,63,0.00,,,0.00,Wunderground v.1.15,2013-01-15 08:20:00,
2013-01-15 01:22:00,-5.9,-15.2,30.85,SE,132,0.0,0.0,63,0.00,,,0.00,Wunderground v.1.15,2013-01-15 08:22:00,
2013-01-15 01:26:00,-5.9,-15.2,30.85,SE,132,0.0,0.0,63,0.00,,,0.00,Wunderground v.1.15,2013-01-15 08:26:00,
2013-01-15 01:28:00,-5.9,-15.2,30.85,SE,132,0.0,0.0,63,0.00,,,0.00,Wunderground v.1.15,2013-01-15 08:28:00,
2013-01-15 01:32:00,-5.9,-15.2,30.85,SE,132,0.0,0.0,63,0.00,,,0.00,Wunderground v.1.15,2013-01-15 08:32:00,
2013-01-15 01:34:00,-5.9,-15.2,30.85,SE,132,0.0,0.0,63,0.00,,,0.00,Wunderground v.1.15,2013-01-15 08:34:00,
2013-01-15 01:36:00,-5.9,-15.2,30.85,SE,132,0.0,0.0,63,0.00,,,0.00,Wunderground v.1.15,2013-01-15 08:36:00,
2013-01-15 01:38:00,-5.9,-14.9,30.85,SE,132,0.0,0.0,64,0.00,,,0.00,Wunderground v.1.15,2013-01-15 08:38:00,
2013-01-15 01:40:00,-5.9,-14.9,30.85,SE,132,0.0,0.0,64,0.00,,,0.00,Wunderground v.1.15,2013-01-15 08:40:00,
2013-01-15 01:42:00,-5.9,-14.9,30.85,SE,132,0.0,0.0,64,0.00,,,0.00,Wunderground v.1.15,2013-01-15 08:42:00,
2013-01-15 01:44:00,-5.6,-14.7,30.85,SE,132,0.0,0.0,64,0.00,,,0.00,Wunderground v.1.15,2013-01-15 08:44:00,
2013-01-15 01:46:00,-5.6,-15.0,30.86,SE,132,0.0,0.0,63,0.00,,,0.00,Wunderground v.1.15,2013-01-15 08:46:00,
2013-01-15 01:50:00,-5.6,-15.0,30.86,SE,132,0.0,0.0,63,0.00,,,0.00,Wunderground v.1.15,2013-01-15 08:50:00,
2013-01-15 01:52:00,-5.6,-15.0,30.86,SE,132,0.0,0.0,63,0.00,,,0.00,Wunderground v.1.15,2013-01-15 08:52:00,
2013-01-15 01:54:00,-5.6,-15.0,30.86,SE,132,0.0,1.0,63,0.00,,,0.00,Wunderground v.1.15,2013-01-15 08:54:00,
2013-01-15 01:58:00,-5.6,-15.0,30.86,SE,132,0.0,1.0,63,0.00,,,0.00,Wunderground v.1.15,2013-01-15 08:58:00,
2013-01-15 02:00:00,-5.4,-15.1,30.87,SE,132,0.0,0.0,62,0.00,,,0.00,Wunderground v.1.15,2013-01-15 09:00:00,
2013-01-15 02:02:00,-5.4,-15.1,30.87,SE,132,0.0,0.0,62,0.00,,,0.00,Wunderground v.1.15,2013-01-15 09:02:00,
2013-01-15 02:04:00,-5.4,-15.1,30.87,SE,132,0.0,1.0,62,0.00,,,0.00,Wunderground v.1.15,2013-01-15 09:04:00,
2013-01-15 02:06:00,-5.4,-15.1,30.87,SE,132,0.0,1.0,62,0.00,,,0.00,Wunderground v.1.15,2013-01-15 09:06:00,
2013-01-15 02:08:00,-5.2,-14.9,30.87,SE,132,0.0,1.0,62,0.00,,,0.00,Wunderground v.1.15,2013-01-15 09:08:00,
2013-01-15 02:10:00,-5.2,-14.9,30.87,SE,132,0.0,0.0,62,0.00,,,0.00,Wunderground v.1.15,2013-01-15 09:10:00,
2013-01-15 02:12:00,-5.4,-15.1,30.87,SE,132,0.0,0.0,62,0.00,,,0.00,Wunderground v.1.15,2013-01-15 09:12:00,
2013-01-15 02:16:00,-5.4,-15.1,30.85,SE,132,0.0,0.0,62,0.00,,,0.00,Wunderground v.1.15,2013-01-15 09:16:00,
2013-01-15 02:18:00,-5.4,-15.1,30.85,SE,132,0.0,0.0,62,0.00,,,0.00,Wunderground v.1.15,2013-01-15 09:18:00,
2013-01-15 02:20:00,-5.4,-15.1,30.85,SE,132,0.0,0.0,62,0.00,,,0.00,Wunderground v.1.15,2013-01-15 09:20:00,
2013-01-15 02:24:00,-5.6,-15.3,30.85,SE,132,0.0,0.0,62,0.00,,,0.00,Wunderground v.1.15,2013-01-15 09:24:00,
2013-01-15 02:26:00,-5.6,-15.3,30.85,SE,132,0.0,0.0,62,0.00,,,0.00,Wunderground v.1.15,2013-01-15 09:26:00,
2013-01-15 02:32:00,-5.9,-15.6,30.85,SE,132,0.0,0.0,62,0.00,,,0.00,Wunderground v.1.15,2013-01-15 09:32:00,
2013-01-15 02:34:00,-5.9,-15.6,30.85,SE,132,0.0,1.0,62,0.00,,,0.00,Wunderground v.1.15,2013-01-15 09:34:00,
2013-01-15 02:36:00,-5.9,-15.6,30.85,SE,141,0.0,3.0,62,0.00,,,0.00,Wunderground v.1.15,2013-01-15 09:36:00,
2013-01-15 02:40:00,-5.6,-15.3,30.85,SE,140,0.0,0.0,62,0.00,,,0.00,Wunderground v.1.15,2013-01-15 09:40:00,
2013-01-15 02:42:00,-5.6,-15.3,30.85,SE,140,1.0,1.0,62,0.00,,,0.00,Wunderground v.1.15,2013-01-15 09:42:00,
2013-01-15 02:46:00,-5.2,-15.2,30.85,SE,146,1.0,1.0,61,0.00,,,0.00,Wunderground v.1.15,2013-01-15 09:46:00,
2013-01-15 02:48:00,-5.2,-15.2,30.85,SSE,148,1.0,3.0,61,0.00,,,0.00,Wunderground v.1.15,2013-01-15 09:48:00,
2013-01-15 02:52:00,-5.2,-15.5,30.85,SSE,155,1.0,1.0,60,0.00,,,0.00,Wunderground v.1.15,2013-01-15 09:52:00,
2013-01-15 02:56:00,-5.2,-15.5,30.85,SSE,149,2.0,2.0,60,0.00,,,0.00,Wunderground v.1.15,2013-01-15 09:56:00,
2013-01-15 02:58:00,-5.2,-15.5,30.85,SSE,149,2.0,2.0,60,0.00,,,0.00,Wunderground v.1.15,2013-01-15 09:58:00,
2013-01-15 03:00:00,-5.2,-15.5,30.85,SSE,149,1.0,3.0,60,0.00,,,0.00,Wunderground v.1.15,2013-01-15 10:00:00,
2013-01-15 03:04:00,-5.2,-15.9,30.85,ESE,118,2.0,8.0,59,0.00,,,0.00,Wunderground v.1.15,2013-01-15 10:04:00,
2013-01-15 03:06:00,-5.0,-15.7,30.85,SSE,154,2.0,8.0,59,0.00,,,0.00,Wunderground v.1.15,2013-01-15 10:06:00,
2013-01-15 03:08:00,-5.0,-15.7,30.85,SE,144,2.0,8.0,59,0.00,,,0.00,Wunderground v.1.15,2013-01-15 10:08:00,
2013-01-15 03:10:00,-5.0,-15.7,30.85,SE,137,2.0,2.0,59,0.00,,,0.00,Wunderground v.1.15,2013-01-15 10:10:00,
2013-01-15 03:14:00,-5.0,-16.0,30.85,SSE,168,2.0,5.0,58,0.00,,,0.00,Wunderground v.1.15,2013-01-15 10:14:00,
2013-01-15 03:16:00,-5.0,-16.0,30.85,SSE,152,2.0,5.0,58,0.00,,,0.00,Wunderground v.1.15,2013-01-15 10:16:00,
2013-01-15 03:18:00,-5.0,-16.0,30.85,SSE,152,1.0,5.0,58,0.00,,,0.00,Wunderground v.1.15,2013-01-15 10:18:00,
2013-01-15 03:20:00,-5.2,-16.2,30.85,SSE,152,1.0,1.0,58,0.00,,,0.00,Wunderground v.1.15,2013-01-15 10:20:00,
2013-01-15 03:22:00,-5.2,-16.2,30.85,SSE,153,1.0,1.0,58,0.00,,,0.00,Wunderground v.1.15,2013-01-15 10:22:00,
2013-01-15 03:24:00,-5.2,-16.2,30.85,SSE,153,0.0,1.0,58,0.00,,,0.00,Wunderground v.1.15,2013-01-15 10:24:00,
2013-01-15 03:26:00,-5.2,-16.2,30.85,SSE,153,0.0,1.0,58,0.00,,,0.00,Wunderground v.1.15,2013-01-15 10:26:00,
2013-01-15 03:31:00,-5.4,-16.4,30.86,SSE,152,0.0,0.0,58,0.00,,,0.00,Wunderground v.1.15,2013-01-15 10:31:00,
2013-01-15 03:34:00,-5.2,-15.9,30.86,SSE,162,0.0,0.0,59,0.00,,,0.00,Wunderground v.1.15,2013-01-15 10:34:00,
2013-01-15 03:38:00,-5.0,-16.0,30.86,SSE,162,1.0,1.0,58,0.00,,,0.00,Wunderground v.1.15,2013-01-15 10:38:00,
2013-01-15 03:40:00,-5.0,-16.0,30.86,SSE,162,0.0,0.0,58,0.00,,,0.00,Wunderground v.1.15,2013-01-15 10:40:00,
2013-01-15 03:44:00,-5.0,-16.0,30.86,SSE,147,0.0,1.0,58,0.00,,,0.00,Wunderground v.1.15,2013-01-15 10:44:00,
2013-01-15 03:46:00,-5.0,-16.0,30.84,SSE,166,1.0,1.0,58,0.00,,,0.00,Wunderground v.1.15,2013-01-15 10:46:00,
2013-01-15 03:48:00,-5.0,-16.0,30.84,SSE,166,1.0,1.0,58,0.00,,,0.00,Wunderground v.1.15,2013-01-15 10:48:00,
2013-01-15 03:50:00,-5.0,-16.0,30.84,SSE,166,1.0,1.0,58,0.00,,,0.00,Wunderground v.1.15,2013-01-15 10:50:00,
2013-01-15 03:54:00,-5.0,-16.0,30.84,SSE,166,1.0,2.0,58,0.00,,,0.00,Wunderground v.1.15,2013-01-15 10:54:00,
2013-01-15 03:56:00,-5.0,-16.0,30.84,SSE,158,0.0,5.0,58,0.00,,,0.00,Wunderground v.1.15,2013-01-15 10:56:00,
2013-01-15 03:58:00,-5.0,-16.0,30.84,SSE,151,1.0,5.0,58,0.00,,,0.00,Wunderground v.1.15,2013-01-15 10:58:00,
2013-01-15 04:02:00,-4.8,-15.8,30.85,SSE,151,1.0,1.0,58,0.00,,,0.00,Wunderground v.1.15,2013-01-15 11:02:00,
2013-01-15 04:04:00,-5.0,-16.0,30.85,SSE,151,1.0,1.0,58,0.00,,,0.00,Wunderground v.1.15,2013-01-15 11:04:00,
2013-01-15 04:06:00,-5.0,-16.0,30.85,SSE,151,1.0,1.0,58,0.00,,,0.00,Wunderground v.1.15,2013-01-15 11:06:00,
2013-01-15 04:08:00,-5.0,-16.0,30.85,SSE,151,0.0,1.0,58,0.00,,,0.00,Wunderground v.1.15,2013-01-15 11:08:00,
2013-01-15 04:10:00,-5.2,-16.2,30.85,SSE,151,0.0,0.0,58,0.00,,,0.00,Wunderground v.1.15,2013-01-15 11:10:00,
2013-01-15 04:14:00,-5.0,-15.7,30.85,SSE,151,0.0,0.0,59,0.00,,,0.00,Wunderground v.1.15,2013-01-15 11:14:00,
2013-01-15 04:18:00,-4.8,-15.2,30.87,SSE,151,0.0,0.0,60,0.00,,,0.00,Wunderground v.1.15,2013-01-15 11:18:00,
2013-01-15 04:20:00,-4.6,-15.0,30.87,SSE,151,0.0,0.0,60,0.00,,,0.00,Wunderground v.1.15,2013-01-15 11:20:00,
2013-01-15 04:22:00,-4.3,-14.7,30.87,SSE,151,0.0,0.0,60,0.00,,,0.00,Wunderground v.1.15,2013-01-15 11:22:00,
2013-01-15 04:28:00,-3.9,-14.3,30.87,SSE,151,0.0,2.0,60,0.00,,,0.00,Wunderground v.1.15,2013-01-15 11:28:00,
2013-01-15 04:30:00,-3.5,-14.3,30.85,SSE,151,0.0,0.0,59,0.00,,,0.00,Wunderground v.1.15,2013-01-15 11:30:00,
2013-01-15 04:32:00,-3.3,-14.1,30.85,SSE,151,0.0,1.0,59,0.00,,,0.00,Wunderground v.1.15,2013-01-15 11:32:00,
2013-01-15 04:34:00,-3.3,-14.4,30.85,SSE,151,1.0,1.0,58,0.00,,,0.00,Wunderground v.1.15,2013-01-15 11:34:00,
2013-01-15 04:36:00,-3.3,-14.4,30.85,SSE,151,1.0,1.0,58,0.00,,,0.00,Wunderground v.1.15,2013-01-15 11:36:00,
2013-01-15 04:38:00,-3.5,-15.0,30.85,SSE,151,1.0,1.0,57,0.00,,,0.00,Wunderground v.1.15,2013-01-15 11:38:00,
2013-01-15 04:42:00,-3.9,-15.3,30.85,SSE,151,1.0,1.0,57,0.00,,,0.00,Wunderground v.1.15,2013-01-15 11:42:00,
2013-01-15 04:44:00,-4.1,-15.9,30.85,SSE,151,0.0,1.0,56,0.00,,,0.00,Wunderground v.1.15,2013-01-15 11:44:00,
2013-01-15 04:46:00,-4.3,-15.7,30.86,SSE,151,0.0,3.0,57,0.00,,,0.00,Wunderground v.1.15,2013-01-15 11:46:00,
2013-01-15 04:50:00,-4.3,-15.7,30.86,SSE,151,0.0,0.0,57,0.00,,,0.00,Wunderground v.1.15,2013-01-15 11:50:00,
2013-01-15 04:52:00,-4.6,-16.0,30.86,SSE,151,0.0,0.0,57,0.00,,,0.00,Wunderground v.1.15,2013-01-15 11:52:00,
2013-01-15 04:54:00,-4.6,-16.0,30.86,SSE,151,0.0,0.0,57,0.00,,,0.00,Wunderground v.1.15,2013-01-15 11:54:00,
2013-01-15 04:58:00,-4.8,-15.8,30.86,SSE,151,0.0,0.0,58,0.00,,,0.00,Wunderground v.1.15,2013-01-15 11:58:00,
2013-01-15 05:00:00,-5.0,-16.0,30.87,SSE,151,0.0,1.0,58,0.00,,,0.00,Wunderground v.1.15,2013-01-15 12:00:00,
2013-01-15 05:02:00,-5.4,-16.4,30.87,SSE,151,0.0,1.0,58,0.00,,,0.00,Wunderground v.1.15,2013-01-15 12:02:00,
2013-01-15 05:06:00,-5.9,-16.5,30.87,SSE,151,0.0,1.0,59,0.00,,,0.00,Wunderground v.1.15,2013-01-15 12:06:00,
2013-01-15 05:10:00,-6.5,-16.8,30.87,SSE,151,1.0,1.0,60,0.00,,,0.00,Wunderground v.1.15,2013-01-15 12:10:00,
2013-01-15 05:12:00,-6.8,-16.7,30.87,SSE,151,1.0,1.0,61,0.00,,,0.00,Wunderground v.1.15,2013-01-15 12:12:00,
2013-01-15 05:16:00,-6.8,-16.4,30.94,SSE,151,1.0,1.0,62,0.00,,,0.00,Wunderground v.1.15,2013-01-15 12:16:00,
2013-01-15 05:18:00,-6.5,-16.1,30.94,SSE,159,1.0,1.0,62,0.00,,,0.00,Wunderground v.1.15,2013-01-15 12:18:00,
2013-01-15 05:20:00,-6.1,-15.8,30.94,South,186,1.0,1.0,62,0.00,,,0.00,Wunderground v.1.15,2013-01-15 12:20:00,
2013-01-15 05:22:00,-5.9,-15.6,30.94,SSE,161,1.0,1.0,62,0.00,,,0.00,Wunderground v.1.15,2013-01-15 12:22:00,
2013-01-15 05:24:00,-5.6,-15.6,30.94,SSE,161,1.0,1.0,61,0.00,,,0.00,Wunderground v.1.15,2013-01-15 12:24:00,
2013-01-15 05:26:00,-5.4,-15.7,30.94,SSE,162,1.0,1.0,60,0.00,,,0.00,Wunderground v.1.15,2013-01-15 12:26:00,
2013-01-15 05:28:00,-5.4,-16.1,30.94,SSE,161,1.0,2.0,59,0.00,,,0.00,Wunderground v.1.15,2013-01-15 12:28:00,
2013-01-15 05:30:00,-5.4,-16.1,30.94,SSE,161,0.0,0.0,59,0.00,,,0.00,Wunderground v.1.15,2013-01-15 12:30:00,
2013-01-15 05:32:00,-5.4,-16.1,30.94,SSE,161,0.0,0.0,59,0.00,,,0.00,Wunderground v.1.15,2013-01-15 12:32:00,
2013-01-15 05:34:00,-5.6,-16.6,30.94,SSE,161,0.0,0.0,58,0.00,,,0.00,Wunderground v.1.15,2013-01-15 12:34:00,
2013-01-15 05:36:00,-5.6,-16.6,30.94,SSE,161,0.0,0.0,58,0.00,,,0.00,Wunderground v.1.15,2013-01-15 12:36:00,
2013-01-15 05:38:00,-5.9,-16.9,30.94,SSE,161,0.0,2.0,58,0.00,,,0.00,Wunderground v.1.15,2013-01-15 12:38:00,
2013-01-15 05:42:00,-6.1,-17.1,30.94,SSE,161,0.0,0.0,58,0.00,,,0.00,Wunderground v.1.15,2013-01-15 12:42:00,
2013-01-15 05:46:00,-6.8,-17.7,30.96,SSE,161,0.0,0.0,58,0.00,,,0.00,Wunderground v.1.15,2013-01-15 12:46:00,
2013-01-15 05:48:00,-7.0,-17.9,30.96,SSE,161,0.0,0.0,58,0.00,,,0.00,Wunderground v.1.15,2013-01-15 12:48:00,
2013-01-15 05:50:00,-7.0,-17.9,30.96,SSE,161,0.0,0.0,58,0.00,,,0.00,Wunderground v.1.15,2013-01-15 12:50:00,
2013-01-15 05:52:00,-7.0,-17.9,30.96,SSE,161,0.0,0.0,58,0.00,,,0.00,Wunderground v.1.15,2013-01-15 12:52:00,
2013-01-15 05:54:00,-7.0,-17.9,30.96,SSE,161,0.0,0.0,58,0.00,,,0.00,Wunderground v.1.15,2013-01-15 12:54:00,
2013-01-15 05:58:00,-7.0,-17.6,30.96,SSE,161,0.0,0.0,59,0.00,,,0.00,Wunderground v.1.15,2013-01-15 12:58:00,
2013-01-15 06:00:00,-7.0,-17.6,30.97,SSE,161,0.0,0.0,59,0.00,,,0.00,Wunderground v.1.15,2013-01-15 13:00:00,
2013-01-15 06:02:00,-7.0,-17.6,30.97,SSE,161,0.0,0.0,59,0.00,,,0.00,Wunderground v.1.15,2013-01-15 13:02:00,
2013-01-15 06:06:00,-6.8,-17.4,30.97,SSE,161,0.0,0.0,59,0.00,,,0.00,Wunderground v.1.15,2013-01-15 13:06:00,
2013-01-15 06:08:00,-6.8,-17.4,30.97,SSE,161,0.0,0.0,59,0.00,,,0.00,Wunderground v.1.15,2013-01-15 13:08:00,
2013-01-15 06:10:00,-6.8,-17.4,30.97,SSE,161,0.0,0.0,59,0.00,,,0.00,Wunderground v.1.15,2013-01-15 13:10:00,
2013-01-15 06:12:00,-7.0,-17.6,30.97,SSE,161,0.0,0.0,59,0.00,,,0.00,Wunderground v.1.15,2013-01-15 13:12:00,
2013-01-15 06:14:00,-7.0,-17.9,30.97,SSE,161,0.0,0.0,58,0.00,,,0.00,Wunderground v.1.15,2013-01-15 13:14:00,
2013-01-15 06:16:00,-7.0,-17.9,31.00,SSE,161,0.0,0.0,58,0.00,,,0.00,Wunderground v.1.15,2013-01-15 13:16:00,
2013-01-15 06:20:00,-7.2,-17.8,31.00,SSE,161,0.0,0.0,59,0.00,,,0.00,Wunderground v.1.15,2013-01-15 13:20:00,
2013-01-15 06:22:00,-7.2,-17.8,31.00,SSE,161,0.0,0.0,59,0.00,,,0.00,Wunderground v.1.15,2013-01-15 13:22:00,
2013-01-15 06:26:00,-7.2,-17.8,31.00,SSE,161,0.0,0.0,59,0.00,,,0.00,Wunderground v.1.15,2013-01-15 13:26:00,
2013-01-15 06:28:00,-7.2,-17.8,31.00,SSE,161,0.0,0.0,59,0.00,,,0.00,Wunderground v.1.15,2013-01-15 13:28:00,
2013-01-15 06:30:00,-7.5,-18.1,31.01,SSE,161,0.0,0.0,59,0.00,,,0.00,Wunderground v.1.15,2013-01-15 13:30:00,
2013-01-15 06:34:00,-7.7,-17.9,31.01,SSE,161,0.0,0.0,60,0.00,,,0.00,Wunderground v.1.15,2013-01-15 13:34:00,
2013-01-15 06:36:00,-7.7,-17.9,31.01,SSE,161,0.0,0.0,60,0.00,,,0.00,Wunderground v.1.15,2013-01-15 13:36:00,
2013-01-15 06:38:00,-7.9,-18.1,31.01,SSE,161,0.0,0.0,60,0.00,,,0.00,Wunderground v.1.15,2013-01-15 13:38:00,
2013-01-15 06:42:00,-8.4,-18.6,31.01,SSE,162,0.0,0.0,60,0.00,,,0.00,Wunderground v.1.15,2013-01-15 13:42:00,
2013-01-15 06:44:00,-8.6,-18.8,31.01,SSE,162,0.0,0.0,60,0.00,,,0.00,Wunderground v.1.15,2013-01-15 13:44:00,
2013-01-15 06:46:00,-8.6,-18.5,31.02,SSE,161,0.0,0.0,61,0.00,,,0.00,Wunderground v.1.15,2013-01-15 13:46:00,
2013-01-15 06:50:00,-8.6,-18.1,31.02,SSE,161,0.0,0.0,62,0.00,,,0.00,Wunderground v.1.15,2013-01-15 13:50:00,
2013-01-15 06:52:00,-8.6,-18.1,31.02,SSE,161,0.0,0.0,62,0.00,,,0.00,Wunderground v.1.15,2013-01-15 13:52:00,
2013-01-15 06:54:00,-8.4,-17.9,31.02,SSE,161,0.0,0.0,62,0.00,,,0.00,Wunderground v.1.15,2013-01-15 13:54:00,
2013-01-15 06:56:00,-8.4,-17.9,31.02,SSE,161,0.0,0.0,62,0.00,,,0.00,Wunderground v.1.15,2013-01-15 13:56:00,
2013-01-15 06:58:00,-8.4,-17.9,31.02,SSE,161,0.0,0.0,62,0.00,,,0.00,Wunderground v.1.15,2013-01-15 13:58:00,
2013-01-15 07:00:00,-8.4,-17.9,31.01,SSE,161,0.0,0.0,62,0.00,,,0.00,Wunderground v.1.15,2013-01-15 14:00:00,
2013-01-15 07:06:00,-8.4,-17.9,31.01,SSE,161,0.0,0.0,62,0.00,,,0.00,Wunderground v.1.15,2013-01-15 14:06:00,
2013-01-15 07:08:00,-8.4,-17.6,31.01,SSE,161,0.0,0.0,63,0.00,,,0.00,Wunderground v.1.15,2013-01-15 14:08:00,
2013-01-15 07:10:00,-8.2,-17.4,31.01,SSE,161,0.0,0.0,63,0.00,,,0.00,Wunderground v.1.15,2013-01-15 14:10:00,
2013-01-15 07:12:00,-8.2,-17.4,31.01,SSE,161,0.0,0.0,63,0.00,,,0.00,Wunderground v.1.15,2013-01-15 14:12:00,
2013-01-15 07:16:00,-7.9,-17.5,31.03,SSE,161,0.0,0.0,62,0.00,,,0.00,Wunderground v.1.15,2013-01-15 14:16:00,
2013-01-15 07:18:00,-7.7,-17.3,31.03,SSE,161,0.0,2.0,62,0.00,,,0.00,Wunderground v.1.15,2013-01-15 14:18:00,
2013-01-15 07:20:00,-7.7,-17.6,31.03,SSE,161,0.0,0.0,61,0.00,,,0.00,Wunderground v.1.15,2013-01-15 14:20:00,
2013-01-15 07:22:00,-7.7,-17.6,31.03,SSE,161,0.0,0.0,61,0.00,,,0.00,Wunderground v.1.15,2013-01-15 14:22:00,
2013-01-15 07:24:00,-7.7,-17.6,31.03,SSE,161,0.0,0.0,61,0.00,,,0.00,Wunderground v.1.15,2013-01-15 14:24:00,
2013-01-15 07:30:00,-7.7,-17.6,31.03,SSE,161,0.0,0.0,61,0.00,,,0.00,Wunderground v.1.15,2013-01-15 14:30:00,
2013-01-15 07:32:00,-7.7,-17.6,31.05,SSE,161,0.0,0.0,61,0.00,,,0.00,Wunderground v.1.15,2013-01-15 14:32:00,
2013-01-15 07:38:00,-7.5,-17.4,31.05,SSE,161,0.0,0.0,61,0.00,,,0.00,Wunderground v.1.15,2013-01-15 14:38:00,
2013-01-15 07:40:00,-7.5,-17.4,31.05,SSE,161,0.0,0.0,61,0.00,,,0.00,Wunderground v.1.15,2013-01-15 14:40:00,
2013-01-15 07:42:00,-7.2,-16.8,31.05,SSE,161,0.0,0.0,62,0.00,,,0.00,Wunderground v.1.15,2013-01-15 14:42:00,
2013-01-15 07:44:00,-7.2,-16.8,31.05,SSE,161,0.0,0.0,62,0.00,,,0.00,Wunderground v.1.15,2013-01-15 14:44:00,
2013-01-15 07:46:00,-7.2,-16.8,31.05,SSE,161,0.0,0.0,62,0.00,,,0.00,Wunderground v.1.15,2013-01-15 14:46:00,
2013-01-15 07:48:00,-7.2,-16.8,31.05,SSE,161,0.0,0.0,62,0.00,,,0.00,Wunderground v.1.15,2013-01-15 14:48:00,
2013-01-15 07:54:00,-6.5,-16.1,31.05,SSE,161,0.0,0.0,62,0.00,,,0.00,Wunderground v.1.15,2013-01-15 14:54:00,
2013-01-15 07:56:00,-6.3,-15.9,31.05,SSE,161,0.0,1.0,62,0.00,,,0.00,Wunderground v.1.15,2013-01-15 14:56:00,
2013-01-15 08:00:00,-5.6,-15.6,31.05,SSE,161,0.0,0.0,61,0.00,,,0.00,Wunderground v.1.15,2013-01-15 15:00:00,
2013-01-15 08:04:00,-5.2,-15.9,31.04,SSE,161,0.0,0.0,59,0.00,,,0.00,Wunderground v.1.15,2013-01-15 15:04:00,
2013-01-15 08:08:00,-4.6,-15.6,31.04,SSE,161,0.0,0.0,58,0.00,,,0.00,Wunderground v.1.15,2013-01-15 15:08:00,
2013-01-15 08:10:00,-4.3,-15.7,31.04,SSE,161,0.0,0.0,57,0.00,,,0.00,Wunderground v.1.15,2013-01-15 15:10:00,
2013-01-15 08:12:00,-4.1,-15.9,31.04,SSE,161,0.0,1.0,56,0.00,,,0.00,Wunderground v.1.15,2013-01-15 15:12:00,
2013-01-15 08:16:00,-3.7,-15.8,31.05,SSE,161,1.0,1.0,55,0.00,,,0.00,Wunderground v.1.15,2013-01-15 15:16:00,
2013-01-15 08:18:00,-3.5,-16.0,31.05,SSE,161,1.0,1.0,54,0.00,,,0.00,Wunderground v.1.15,2013-01-15 15:18:00,
2013-01-15 08:22:00,-3.3,-15.8,31.05,SE,136,1.0,2.0,54,0.00,,,0.00,Wunderground v.1.15,2013-01-15 15:22:00,
2013-01-15 08:24:00,-3.3,-16.2,31.05,SE,136,1.0,2.0,53,0.00,,,0.00,Wunderground v.1.15,2013-01-15 15:24:00,
2013-01-15 08:28:00,-2.8,-15.7,31.05,SE,137,1.0,2.0,53,0.00,,,0.00,Wunderground v.1.15,2013-01-15 15:28:00,
2013-01-15 08:31:00,-2.6,-15.9,31.05,SE,137,1.0,2.0,52,0.00,,,0.00,Wunderground v.1.15,2013-01-15 15:31:00,
2013-01-15 08:36:00,-2.4,-15.7,31.05,SSE,148,0.0,2.0,52,0.00,,,0.00,Wunderground v.1.15,2013-01-15 15:36:00,
2013-01-15 08:38:00,-2.2,-15.2,31.05,SSE,148,0.0,2.0,53,0.00,,,0.00,Wunderground v.1.15,2013-01-15 15:38:00,
2013-01-15 08:40:00,-2.0,-15.4,31.05,South,178,0.0,1.0,52,0.00,,,0.00,Wunderground v.1.15,2013-01-15 15:40:00,
2013-01-15 08:42:00,-2.2,-15.9,31.05,South,178,1.0,1.0,51,0.00,,,0.00,Wunderground v.1.15,2013-01-15 15:42:00,
2013-01-15 08:44:00,-2.2,-15.5,31.05,South,178,1.0,2.0,52,0.00,,,0.00,Wunderground v.1.15,2013-01-15 15:44:00,
2013-01-15 08:48:00,-2.2,-15.5,31.05,South,178,2.0,2.0,52,0.00,,,0.00,Wunderground v.1.15,2013-01-15 15:48:00,
2013-01-15 08:50:00,-2.2,-15.5,31.05,South,178,2.0,2.0,52,0.00,,,0.00,Wunderground v.1.15,2013-01-15 15:50:00,
2013-01-15 08:54:00,-2.0,-15.0,31.05,South,178,2.0,2.0,53,0.00,,,0.00,Wunderground v.1.15,2013-01-15 15:54:00,
2013-01-15 08:56:00,-1.8,-14.8,31.05,South,178,1.0,2.0,53,0.00,,,0.00,Wunderground v.1.15,2013-01-15 15:56:00,
2013-01-15 08:58:00,-1.6,-14.6,31.05,South,178,1.0,2.0,53,0.00,,,0.00,Wunderground v.1.15,2013-01-15 15:58:00,
2013-01-15 09:02:00,-1.2,-14.6,31.06,South,178,0.0,1.0,52,0.00,,,0.00,Wunderground v.1.15,2013-01-15 16:02:00,
2013-01-15 09:08:00,-0.2,-14.1,31.06,South,178,0.0,1.0,51,0.00,,,0.00,Wunderground v.1.15,2013-01-15 16:08:00,
2013-01-15 09:10:00,-0.2,-14.5,31.06,South,178,0.0,0.0,50,0.00,,,0.00,Wunderground v.1.15,2013-01-15 16:10:00,
2013-01-15 09:16:00,0.9,-13.4,31.03,South,178,1.0,3.0,50,0.00,,,0.00,Wunderground v.1.15,2013-01-15 16:16:00,
2013-01-15 09:18:00,1.1,-13.6,31.03,South,178,1.0,3.0,49,0.00,,,0.00,Wunderground v.1.15,2013-01-15 16:18:00,
2013-01-15 09:22:00,1.5,-13.3,31.03,South,178,1.0,1.0,49,0.00,,,0.00,Wunderground v.1.15,2013-01-15 16:22:00,
2013-01-15 09:24:00,1.8,-13.0,31.03,South,178,1.0,1.0,49,0.00,,,0.00,Wunderground v.1.15,2013-01-15 16:24:00,
2013-01-15 09:30:00,2.2,-13.0,31.02,SSE,161,1.0,1.0,48,0.00,,,0.00,Wunderground v.1.15,2013-01-15 16:30:00,
2013-01-15 09:32:00,2.2,-13.0,31.02,SSE,161,1.0,1.0,48,0.00,,,0.00,Wunderground v.1.15,2013-01-15 16:32:00,
2013-01-15 09:34:00,2.4,-12.9,31.02,SSE,161,1.0,1.0,48,0.00,,,0.00,Wunderground v.1.15,2013-01-15 16:34:00,
2013-01-15 09:36:00,2.6,-12.3,31.02,SSE,161,1.0,1.0,49,0.00,,,0.00,Wunderground v.1.15,2013-01-15 16:36:00,
2013-01-15 09:38:00,2.8,-12.1,31.02,SSE,161,1.0,1.0,49,0.00,,,0.00,Wunderground v.1.15,2013-01-15 16:38:00,
2013-01-15 09:42:00,3.2,-11.7,31.02,SSE,161,0.0,0.0,49,0.00,,,0.00,Wunderground v.1.15,2013-01-15 16:42:00,
2013-01-15 09:46:00,3.5,-11.8,31.03,SSE,161,0.0,0.0,48,0.00,,,0.00,Wunderground v.1.15,2013-01-15 16:46:00,
2013-01-15 09:48:00,3.7,-11.6,31.03,SSE,161,0.0,0.0,48,0.00,,,0.00,Wunderground v.1.15,2013-01-15 16:48:00,
2013-01-15 09:50:00,4.3,-11.1,31.03,SSE,161,0.0,0.0,48,0.00,,,0.00,Wunderground v.1.15,2013-01-15 16:50:00,
2013-01-15 09:52:00,4.7,-10.7,31.03,SSE,161,0.0,0.0,48,0.00,,,0.00,Wunderground v.1.15,2013-01-15 16:52:00,
2013-01-15 09:56:00,5.0,-10.9,31.03,SSE,161,0.0,0.0,47,0.00,,,0.00,Wunderground v.1.15,2013-01-15 16:56:00,
2013-01-15 09:58:00,5.2,-10.7,31.03,SSE,161,0.0,0.0,47,0.00,,,0.00,Wunderground v.1.15,2013-01-15 16:58:00,
2013-01-15 10:02:00,5.2,-11.1,31.01,SSE,161,0.0,0.0,46,0.00,,,0.00,Wunderground v.1.15,2013-01-15 17:02:00,
2013-01-15 10:04:00,5.2,-11.1,31.01,SSE,161,0.0,0.0,46,0.00,,,0.00,Wunderground v.1.15,2013-01-15 17:04:00,
2013-01-15 10:06:00,5.2,-9.8,31.01,SSE,161,0.0,0.0,49,0.00,,,0.00,Wunderground v.1.15,2013-01-15 17:06:00,
2013-01-15 10:10:00,5.6,-9.9,31.01,SSE,161,0.0,0.0,48,0.00,,,0.00,Wunderground v.1.15,2013-01-15 17:10:00,
2013-01-15 10:12:00,5.8,-10.1,31.01,SSE,161,0.0,0.0,47,0.00,,,0.00,Wunderground v.1.15,2013-01-15 17:12:00,
2013-01-15 10:14:00,6.0,-9.5,31.01,SSE,161,0.0,2.0,48,0.00,,,0.00,Wunderground v.1.15,2013-01-15 17:14:00,
2013-01-15 10:20:00,6.0,-10.4,31.02,SSE,161,0.0,0.0,46,0.00,,,0.00,Wunderground v.1.15,2013-01-15 17:20:00,
2013-01-15 10:22:00,6.1,-10.3,31.02,SSE,161,0.0,0.0,46,0.00,,,0.00,Wunderground v.1.15,2013-01-15 17:22:00,
2013-01-15 10:26:00,6.9,-9.6,31.02,SSE,161,0.0,0.0,46,0.00,,,0.00,Wunderground v.1.15,2013-01-15 17:26:00,
2013-01-15 10:28:00,7.2,-8.8,31.02,SSE,161,0.0,0.0,47,0.00,,,0.00,Wunderground v.1.15,2013-01-15 17:28:00,
2013-01-15 10:32:00,7.7,-8.8,31.00,SSE,161,0.0,2.0,46,0.00,,,0.00,Wunderground v.1.15,2013-01-15 17:32:00,
2013-01-15 10:38:00,8.4,-9.1,31.00,SSE,162,0.0,2.0,44,0.00,,,0.00,Wunderground v.1.15,2013-01-15 17:38:00,
2013-01-15 10:40:00,8.6,-8.9,31.00,SSE,163,0.0,0.0,44,0.00,,,0.00,Wunderground v.1.15,2013-01-15 17:40:00,
2013-01-15 10:44:00,8.8,-8.7,31.00,SSE,163,0.0,3.0,44,0.00,,,0.00,Wunderground v.1.15,2013-01-15 17:44:00,
2013-01-15 10:46:00,9.0,-8.1,31.00,SSE,163,0.0,3.0,45,0.00,,,0.00,Wunderground v.1.15,2013-01-15 17:46:00,
2013-01-15 10:50:00,9.0,-7.6,31.00,SSE,163,0.0,0.0,46,0.00,,,0.00,Wunderground v.1.15,2013-01-15 17:50:00,
2013-01-15 10:52:00,9.0,-8.1,31.00,SSE,163,0.0,0.0,45,0.00,,,0.00,Wunderground v.1.15,2013-01-15 17:52:00,
2013-01-15 10:54:00,8.8,-7.8,31.00,SSE,162,0.0,0.0,46,0.00,,,0.00,Wunderground v.1.15,2013-01-15 17:54:00,
2013-01-15 10:58:00,8.6,-7.5,31.00,SSE,163,1.0,1.0,47,0.00,,,0.00,Wunderground v.1.15,2013-01-15 17:58:00,
2013-01-15 11:04:00,8.3,-8.3,31.01,SW,233,1.0,1.0,46,0.00,,,0.00,Wunderground v.1.15,2013-01-15 18:04:00,
2013-01-15 11:10:00,8.4,-8.2,31.01,SW,233,1.0,2.0,46,0.00,,,0.00,Wunderground v.1.15,2013-01-15 18:10:00,
2013-01-15 11:12:00,8.3,-8.3,31.01,SW,232,1.0,2.0,46,0.00,,,0.00,Wunderground v.1.15,2013-01-15 18:12:00,
2013-01-15 11:14:00,8.1,-8.0,31.01,SW,233,0.0,2.0,47,0.00,,,0.00,Wunderground v.1.15,2013-01-15 18:14:00,
2013-01-15 11:16:00,8.1,-8.0,31.01,SW,232,0.0,2.0,47,0.00,,,0.00,Wunderground v.1.15,2013-01-15 18:16:00,
2013-01-15 11:18:00,8.3,-7.4,31.01,SW,233,0.0,2.0,48,0.00,,,0.00,Wunderground v.1.15,2013-01-15 18:18:00,
2013-01-15 11:20:00,8.6,-7.1,31.01,SW,232,0.0,0.0,48,0.00,,,0.00,Wunderground v.1.15,2013-01-15 18:20:00,
2013-01-15 11:22:00,8.6,-7.5,31.01,SW,233,0.0,0.0,47,0.00,,,0.00,Wunderground v.1.15,2013-01-15 18:22:00,
2013-01-15 11:24:00,8.6,-7.5,31.01,SW,233,0.0,0.0,47,0.00,,,0.00,Wunderground v.1.15,2013-01-15 18:24:00,
2013-01-15 11:28:00,8.3,-7.8,31.01,SW,232,0.0,3.0,47,0.00,,,0.00,Wunderground v.1.15,2013-01-15 18:28:00,
2013-01-15 11:31:00,8.4,-7.7,30.99,SW,233,0.0,2.0,47,0.00,,,0.00,Wunderground v.1.15,2013-01-15 18:31:00,
2013-01-15 11:36:00,8.4,-7.3,30.99,SSE,150,1.0,2.0,48,0.00,,,0.00,Wunderground v.1.15,2013-01-15 18:36:00,
2013-01-15 11:38:00,8.4,-7.3,30.99,SSE,150,1.0,2.0,48,0.00,,,0.00,Wunderground v.1.15,2013-01-15 18:38:00,
2013-01-15 11:42:00,8.8,-7.4,30.99,SSE,150,1.0,1.0,47,0.00,,,0.00,Wunderground v.1.15,2013-01-15 18:42:00,
2013-01-15 11:46:00,9.3,-6.9,30.97,SSE,150,0.0,1.0,47,0.00,,,0.00,Wunderground v.1.15,2013-01-15 18:46:00,
2013-01-15 11:50:00,10.0,-7.1,30.97,SSE,150,0.0,0.0,45,0.00,,,0.00,Wunderground v.1.15,2013-01-15 18:50:00,
2013-01-15 11:52:00,10.2,-6.5,30.97,SSE,150,0.0,0.0,46,0.00,,,0.00,Wunderground v.1.15,2013-01-15 18:52:00,
2013-01-15 11:54:00,10.4,-6.3,30.97,SSE,150,0.0,0.0,46,0.00,,,0.00,Wunderground v.1.15,2013-01-15 18:54:00,
2013-01-15 11:56:00,10.5,-6.7,30.97,SSE,150,0.0,0.0,45,0.00,,,0.00,Wunderground v.1.15,2013-01-15 18:56:00,
2013-01-15 12:00:00,10.7,-7.0,30.97,SSE,150,0.0,0.0,44,0.00,,,0.00,Wunderground v.1.15,2013-01-15 19:00:00,
2013-01-15 12:02:00,10.7,-6.5,30.94,SSE,150,0.0,0.0,45,0.00,,,0.00,Wunderground v.1.15,2013-01-15 19:02:00,
2013-01-15 12:06:00,10.5,-7.2,30.94,SSE,150,0.0,0.0,44,0.00,,,0.00,Wunderground v.1.15,2013-01-15 19:06:00,
2013-01-15 12:08:00,10.5,-7.2,30.94,NNE,26,0.0,3.0,44,0.00,,,0.00,Wunderground v.1.15,2013-01-15 19:08:00,
2013-01-15 12:10:00,10.2,-7.0,30.94,NNE,26,0.0,0.0,45,0.00,,,0.00,Wunderground v.1.15,2013-01-15 19:10:00,
2013-01-15 12:14:00,10.4,-6.8,30.94,NNE,27,0.0,0.0,45,0.00,,,0.00,Wunderground v.1.15,2013-01-15 19:14:00,
2013-01-15 12:16:00,10.5,-6.7,30.97,NNE,26,0.0,0.0,45,0.00,,,0.00,Wunderground v.1.15,2013-01-15 19:16:00,
2013-01-15 12:22:00,11.1,-6.1,30.97,WNW,303,1.0,1.0,45,0.00,,,0.00,Wunderground v.1.15,2013-01-15 19:22:00,
2013-01-15 12:24:00,10.9,-6.3,30.97,NE,44,1.0,1.0,45,0.00,,,0.00,Wunderground v.1.15,2013-01-15 19:24:00,
2013-01-15 12:26:00,10.9,-5.9,30.97,NE,44,1.0,1.0,46,0.00,,,0.00,Wunderground v.1.15,2013-01-15 19:26:00,
2013-01-15 12:30:00,11.2,-5.6,30.97,NNE,19,1.0,1.0,46,0.00,,,0.00,Wunderground v.1.15,2013-01-15 19:30:00,
2013-01-15 12:32:00,11.4,-5.4,30.97,NNE,19,1.0,1.0,46,0.00,,,0.00,Wunderground v.1.15,2013-01-15 19:32:00,
2013-01-15 12:34:00,11.7,-5.1,30.97,NNE,19,1.0,1.0,46,0.00,,,0.00,Wunderground v.1.15,2013-01-15 19:34:00,
2013-01-15 12:38:00,11.9,-4.9,30.97,NNE,19,1.0,2.0,46,0.00,,,0.00,Wunderground v.1.15,2013-01-15 19:38:00,
2013-01-15 12:40:00,11.7,-4.7,30.97,NNE,19,0.0,0.0,47,0.00,,,0.00,Wunderground v.1.15,2013-01-15 19:40:00,
2013-01-15 12:44:00,11.9,-4.9,30.97,NNE,16,1.0,2.0,46,0.00,,,0.00,Wunderground v.1.15,2013-01-15 19:44:00,
2013-01-15 12:46:00,11.9,-4.9,30.94,NNE,15,1.0,2.0,46,0.00,,,0.00,Wunderground v.1.15,2013-01-15 19:46:00,
2013-01-15 12:50:00,11.9,-4.5,30.94,NNE,13,0.0,0.0,47,0.00,,,0.00,Wunderground v.1.15,2013-01-15 19:50:00,
2013-01-15 12:52:00,11.9,-4.1,30.94,NNE,13,1.0,1.0,48,0.00,,,0.00,Wunderground v.1.15,2013-01-15 19:52:00,
2013-01-15 12:56:00,11.9,-4.5,30.94,NNE,13,0.0,2.0,47,0.00,,,0.00,Wunderground v.1.15,2013-01-15 19:56:00,
2013-01-15 12:58:00,12.1,-4.3,30.94,NNE,14,0.0,2.0,47,0.00,,,0.00,Wunderground v.1.15,2013-01-15 19:58:00,
2013-01-15 13:00:00,12.4,-4.0,30.94,NNE,13,0.0,0.0,47,0.00,,,0.00,Wunderground v.1.15,2013-01-15 20:00:00,
2013-01-15 13:02:00,12.9,-3.6,30.95,NNE,13,0.0,0.0,47,0.00,,,0.00,Wunderground v.1.15,2013-01-15 20:02:00,
2013-01-15 13:06:00,13.3,-3.7,30.95,NNE,15,0.0,0.0,46,0.00,,,0.00,Wunderground v.1.15,2013-01-15 20:06:00,
2013-01-15 13:08:00,13.3,-3.7,30.95,NNE,14,0.0,0.0,46,0.00,,,0.00,Wunderground v.1.15,2013-01-15 20:08:00,
2013-01-15 13:10:00,13.5,-3.5,30.95,East,82,0.0,0.0,46,0.00,,,0.00,Wunderground v.1.15,2013-01-15 20:10:00,
2013-01-15 13:12:00,13.3,-4.1,30.95,SE,142,0.0,2.0,45,0.00,,,0.00,Wunderground v.1.15,2013-01-15 20:12:00,
2013-01-15 13:14:00,13.1,-4.3,30.95,SE,142,0.0,2.0,45,0.00,,,0.00,Wunderground v.1.15,2013-01-15 20:14:00,
2013-01-15 13:16:00,12.9,-4.0,30.92,SSE,148,1.0,3.0,46,0.00,,,0.00,Wunderground v.1.15,2013-01-15 20:16:00,
2013-01-15 13:18:00,12.8,-4.1,30.92,SSE,148,1.0,3.0,46,0.00,,,0.00,Wunderground v.1.15,2013-01-15 20:18:00,
2013-01-15 13:24:00,12.9,-3.1,30.92,SSE,148,1.0,2.0,48,0.00,,,0.00,Wunderground v.1.15,2013-01-15 20:24:00,
2013-01-15 13:28:00,12.8,-3.7,30.92,SSE,148,0.0,2.0,47,0.00,,,0.00,Wunderground v.1.15,2013-01-15 20:28:00,
2013-01-15 13:30:00,12.8,-3.7,30.93,SSE,148,0.0,0.0,47,0.00,,,0.00,Wunderground v.1.15,2013-01-15 20:30:00,
2013-01-15 13:34:00,12.8,-4.1,30.93,SSE,148,0.0,0.0,46,0.00,,,0.00,Wunderground v.1.15,2013-01-15 20:34:00,
2013-01-15 13:36:00,12.9,-3.6,30.93,SSE,148,0.0,0.0,47,0.00,,,0.00,Wunderground v.1.15,2013-01-15 20:36:00,
2013-01-15 13:38:00,13.3,-3.7,30.93,SSE,148,0.0,0.0,46,0.00,,,0.00,Wunderground v.1.15,2013-01-15 20:38:00,
2013-01-15 13:40:00,13.5,-3.5,30.93,SSE,148,0.0,0.0,46,0.00,,,0.00,Wunderground v.1.15,2013-01-15 20:40:00,
2013-01-15 13:42:00,13.5,-3.9,30.93,SSE,148,0.0,2.0,45,0.00,,,0.00,Wunderground v.1.15,2013-01-15 20:42:00,
2013-01-15 13:46:00,13.3,-3.7,30.93,SSE,148,0.0,2.0,46,0.00,,,0.00,Wunderground v.1.15,2013-01-15 20:46:00,
2013-01-15 13:48:00,13.3,-4.1,30.93,SSE,148,0.0,2.0,45,0.00,,,0.00,Wunderground v.1.15,2013-01-15 20:48:00,
2013-01-15 13:52:00,13.6,-3.8,30.93,SSE,148,0.0,1.0,45,0.00,,,0.00,Wunderground v.1.15,2013-01-15 20:52:00,
2013-01-15 13:54:00,13.6,-3.4,30.93,SSE,148,0.0,2.0,46,0.00,,,0.00,Wunderground v.1.15,2013-01-15 20:54:00,
2013-01-15 13:58:00,13.8,-3.2,30.93,SSE,148,0.0,2.0,46,0.00,,,0.00,Wunderground v.1.15,2013-01-15 20:58:00,
2013-01-15 14:02:00,13.6,-3.8,30.92,SSE,148,0.0,0.0,45,0.00,,,0.00,Wunderground v.1.15,2013-01-15 21:02:00,
2013-01-15 14:04:00,13.5,-4.4,30.92,SSE,148,0.0,0.0,44,0.00,,,0.00,Wunderground v.1.15,2013-01-15 21:04:00,
2013-01-15 14:08:00,13.5,-4.9,30.92,SSE,148,0.0,0.0,43,0.00,,,0.00,Wunderground v.1.15,2013-01-15 21:08:00,
2013-01-15 14:10:00,13.6,-4.8,30.92,SSE,148,0.0,0.0,43,0.00,,,0.00,Wunderground v.1.15,2013-01-15 21:10:00,
2013-01-15 14:14:00,14.0,-4.4,30.92,SSE,148,0.0,0.0,43,0.00,,,0.00,Wunderground v.1.15,2013-01-15 21:14:00,
2013-01-15 14:16:00,14.3,-4.2,30.93,SSE,148,0.0,0.0,43,0.00,,,0.00,Wunderground v.1.15,2013-01-15 21:16:00,
2013-01-15 14:20:00,14.8,-3.7,30.93,SSE,148,0.0,0.0,43,0.00,,,0.00,Wunderground v.1.15,2013-01-15 21:20:00,
2013-01-15 14:22:00,14.9,-3.6,30.93,SSE,148,0.0,0.0,43,0.00,,,0.00,Wunderground v.1.15,2013-01-15 21:22:00,
2013-01-15 14:24:00,14.9,-3.6,30.93,SSE,148,0.0,0.0,43,0.00,,,0.00,Wunderground v.1.15,2013-01-15 21:24:00,
2013-01-15 14:28:00,15.2,-3.8,30.93,SSE,148,0.0,2.0,42,0.00,,,0.00,Wunderground v.1.15,2013-01-15 21:28:00,
2013-01-15 14:34:00,15.1,-3.9,30.92,SSE,148,0.0,0.0,42,0.00,,,0.00,Wunderground v.1.15,2013-01-15 21:34:00,
2013-01-15 14:36:00,14.9,-3.6,30.92,SSE,148,0.0,0.0,43,0.00,,,0.00,Wunderground v.1.15,2013-01-15 21:36:00,
2013-01-15 14:38:00,14.9,-3.6,30.92,SSE,148,0.0,0.0,43,0.00,,,0.00,Wunderground v.1.15,2013-01-15 21:38:00,
2013-01-15 14:42:00,14.9,-3.6,30.92,SSE,148,0.0,0.0,43,0.00,,,0.00,Wunderground v.1.15,2013-01-15 21:42:00,
2013-01-15 14:46:00,15.2,-2.8,30.92,SSE,148,0.0,1.0,44,0.00,,,0.00,Wunderground v.1.15,2013-01-15 21:46:00,
2013-01-15 14:48:00,15.1,-2.9,30.92,SSE,148,0.0,1.0,44,0.00,,,0.00,Wunderground v.1.15,2013-01-15 21:48:00,
2013-01-15 14:52:00,15.1,-2.5,30.92,SSE,148,0.0,2.0,45,0.00,,,0.00,Wunderground v.1.15,2013-01-15 21:52:00,
2013-01-15 14:54:00,14.8,-2.7,30.92,SSE,148,1.0,2.0,45,0.00,,,0.00,Wunderground v.1.15,2013-01-15 21:54:00,
2013-01-15 14:56:00,14.6,-2.9,30.92,SSE,148,1.0,2.0,45,0.00,,,0.00,Wunderground v.1.15,2013-01-15 21:56:00,
2013-01-15 15:01:00,14.6,-2.5,30.92,SSE,148,1.0,1.0,46,0.00,,,0.00,Wunderground v.1.15,2013-01-15 22:01:00,
2013-01-15 15:02:00,14.6,-2.0,30.92,SSE,148,1.0,1.0,47,0.00,,,0.00,Wunderground v.1.15,2013-01-15 22:02:00,
2013-01-15 15:04:00,14.6,-2.5,30.92,SSE,148,1.0,1.0,46,0.00,,,0.00,Wunderground v.1.15,2013-01-15 22:04:00,
2013-01-15 15:10:00,14.6,-2.5,30.92,SSE,148,0.0,0.0,46,0.00,,,0.00,Wunderground v.1.15,2013-01-15 22:10:00,
2013-01-15 15:12:00,14.8,-2.3,30.92,SSE,148,0.0,0.0,46,0.00,,,0.00,Wunderground v.1.15,2013-01-15 22:12:00,
2013-01-15 15:16:00,14.9,-2.2,30.91,SSE,148,0.0,0.0,46,0.00,,,0.00,Wunderground v.1.15,2013-01-15 22:16:00,
2013-01-15 15:18:00,14.9,-2.2,30.91,SSE,148,0.0,0.0,46,0.00,,,0.00,Wunderground v.1.15,2013-01-15 22:18:00,
2013-01-15 15:22:00,14.9,-1.7,30.91,SSE,148,0.0,2.0,47,0.00,,,0.00,Wunderground v.1.15,2013-01-15 22:22:00,
2013-01-15 15:24:00,14.8,-2.3,30.91,SSE,148,0.0,2.0,46,0.00,,,0.00,Wunderground v.1.15,2013-01-15 22:24:00,
2013-01-15 15:30:00,14.9,-2.2,30.91,SSE,148,0.0,0.0,46,0.00,,,0.00,Wunderground v.1.15,2013-01-15 22:30:00,
2013-01-15 15:34:00,14.8,-2.3,30.91,SSE,148,0.0,0.0,46,0.00,,,0.00,Wunderground v.1.15,2013-01-15 22:34:00,
2013-01-15 15:36:00,14.8,-1.8,30.91,SSE,148,0.0,0.0,47,0.00,,,0.00,Wunderground v.1.15,2013-01-15 22:36:00,
2013-01-15 15:38:00,14.6,-2.0,30.91,SSE,148,0.0,2.0,47,0.00,,,0.00,Wunderground v.1.15,2013-01-15 22:38:00,
2013-01-15 15:44:00,14.3,-2.3,30.91,SSE,148,1.0,1.0,47,0.00,,,0.00,Wunderground v.1.15,2013-01-15 22:44:00,
2013-01-15 15:46:00,14.3,-2.3,30.93,SSE,148,1.0,1.0,47,0.00,,,0.00,Wunderground v.1.15,2013-01-15 22:46:00,
2013-01-15 15:48:00,14.3,-2.3,30.93,SSE,148,1.0,1.0,47,0.00,,,0.00,Wunderground v.1.15,2013-01-15 22:48:00,
2013-01-15 15:50:00,14.3,-2.3,30.93,SSE,148,0.0,0.0,47,0.00,,,0.00,Wunderground v.1.15,2013-01-15 22:50:00,
2013-01-15 15:54:00,14.1,-2.0,30.93,SSE,148,0.0,0.0,48,0.00,,,0.00,Wunderground v.1.15,2013-01-15 22:54:00,
2013-01-15 15:56:00,14.1,-2.0,30.93,SSE,148,0.0,2.0,48,0.00,,,0.00,Wunderground v.1.15,2013-01-15 22:56:00,
2013-01-15 15:58:00,14.1,-2.0,30.93,SSE,148,0.0,2.0,48,0.00,,,0.00,Wunderground v.1.15,2013-01-15 22:58:00,
2013-01-15 16:02:00,14.0,-2.6,30.94,SSE,148,1.0,2.0,47,0.00,,,0.00,Wunderground v.1.15,2013-01-15 23:02:00,
2013-01-15 16:04:00,14.0,-2.1,30.94,SSE,148,1.0,2.0,48,0.00,,,0.00,Wunderground v.1.15,2013-01-15 23:04:00,
2013-01-15 16:06:00,14.0,-2.1,30.94,SSE,148,1.0,2.0,48,0.00,,,0.00,Wunderground v.1.15,2013-01-15 23:06:00,
2013-01-15 16:08:00,14.0,-1.7,30.94,WNW,301,1.0,3.0,49,0.00,,,0.00,Wunderground v.1.15,2013-01-15 23:08:00,
2013-01-15 16:12:00,13.8,-2.3,30.94,WNW,302,1.0,1.0,48,0.00,,,0.00,Wunderground v.1.15,2013-01-15 23:12:00,
2013-01-15 16:14:00,13.6,-2.5,30.94,NW,304,2.0,2.0,48,0.00,,,0.00,Wunderground v.1.15,2013-01-15 23:14:00,
2013-01-15 16:18:00,13.6,-2.5,30.94,NW,304,1.0,2.0,48,0.00,,,0.00,Wunderground v.1.15,2013-01-15 23:18:00,
2013-01-15 16:20:00,13.6,-2.5,30.94,NW,304,1.0,2.0,48,0.00,,,0.00,Wunderground v.1.15,2013-01-15 23:20:00,
2013-01-15 16:22:00,13.6,-2.5,30.94,NW,304,1.0,2.0,48,0.00,,,0.00,Wunderground v.1.15,2013-01-15 23:22:00,
2013-01-15 16:24:00,13.5,-2.6,30.94,NW,304,1.0,2.0,48,0.00,,,0.00,Wunderground v.1.15,2013-01-15 23:24:00,
2013-01-15 16:26:00,13.5,-2.1,30.94,NW,304,1.0,2.0,49,0.00,,,0.00,Wunderground v.1.15,2013-01-15 23:26:00,
2013-01-15 16:30:00,13.5,-2.1,30.94,NW,304,1.0,2.0,49,0.00,,,0.00,Wunderground v.1.15,2013-01-15 23:30:00,
2013-01-15 16:32:00,13.5,-1.7,30.94,NW,304,0.0,1.0,50,0.00,,,0.00,Wunderground v.1.15,2013-01-15 23:32:00,
2013-01-15 16:38:00,13.5,-1.7,30.94,NW,309,1.0,3.0,50,0.00,,,0.00,Wunderground v.1.15,2013-01-15 23:38:00,
2013-01-15 16:40:00,13.3,-2.3,30.94,NW,323,1.0,3.0,49,0.00,,,0.00,Wunderground v.1.15,2013-01-15 23:40:00,
2013-01-15 16:44:00,13.1,-2.5,30.94,NW,323,1.0,3.0,49,0.00,,,0.00,Wunderground v.1.15,2013-01-15 23:44:00,
2013-01-15 16:48:00,12.9,-2.7,30.94,NW,323,1.0,3.0,49,0.00,,,0.00,Wunderground v.1.15,2013-01-15 23:48:00,
2013-01-15 16:50:00,12.8,-2.8,30.94,NW,323,1.0,3.0,49,0.00,,,0.00,Wunderground v.1.15,2013-01-15 23:50:00,
2013-01-15 16:54:00,12.8,-2.4,30.94,NW,323,1.0,3.0,50,0.00,,,0.00,Wunderground v.1.15,2013-01-15 23:54:00,
2013-01-15 16:58:00,12.4,-2.7,30.94,NNE,14,1.0,3.0,50,0.00,,,0.00,Wunderground v.1.15,2013-01-15 23:58:00,
2013-01-15 17:04:00,11.9,-2.4,30.97,NE,34,1.0,1.0,52,0.00,,,0.00,Wunderground v.1.15,2013-01-16 00:04:00,
2013-01-15 17:06:00,11.6,-2.7,30.97,NE,34,1.0,1.0,52,0.00,,,0.00,Wunderground v.1.15,2013-01-16 00:06:00,
2013-01-15 17:10:00,11.4,-2.4,30.97,NE,34,0.0,0.0,53,0.00,,,0.00,Wunderground v.1.15,2013-01-16 00:10:00,
2013-01-15 17:12:00,11.2,-2.6,30.97,NE,34,0.0,0.0,53,0.00,,,0.00,Wunderground v.1.15,2013-01-16 00:12:00,
2013-01-15 17:14:00,11.1,-2.3,30.97,NE,34,0.0,0.0,54,0.00,,,0.00,Wunderground v.1.15,2013-01-16 00:14:00,
2013-01-15 17:20:00,10.9,-2.5,30.99,NE,34,0.0,0.0,54,0.00,,,0.00,Wunderground v.1.15,2013-01-16 00:20:00,
2013-01-15 17:22:00,10.7,-2.3,30.99,NE,34,0.0,0.0,55,0.00,,,0.00,Wunderground v.1.15,2013-01-16 00:22:00,
2013-01-15 17:24:00,10.7,-2.3,30.99,NE,34,0.0,0.0,55,0.00,,,0.00,Wunderground v.1.15,2013-01-16 00:24:00,
2013-01-15 17:26:00,10.5,-2.5,30.99,NE,34,0.0,0.0,55,0.00,,,0.00,Wunderground v.1.15,2013-01-16 00:26:00,
2013-01-15 17:30:00,10.4,-2.6,30.99,NE,34,0.0,0.0,55,0.00,,,0.00,Wunderground v.1.15,2013-01-16 00:30:00,
2013-01-15 17:36:00,10.2,-2.8,31.00,NE,34,0.0,0.0,55,0.00,,,0.00,Wunderground v.1.15,2013-01-16 00:36:00,
2013-01-15 17:38:00,10.2,-2.4,31.00,NE,34,0.0,0.0,56,0.00,,,0.00,Wunderground v.1.15,2013-01-16 00:38:00,
2013-01-15 17:42:00,10.0,-2.6,31.00,NE,34,0.0,0.0,56,0.00,,,0.00,Wunderground v.1.15,2013-01-16 00:42:00,
2013-01-15 17:44:00,10.0,-2.6,31.00,NE,34,0.0,0.0,56,0.00,,,0.00,Wunderground v.1.15,2013-01-16 00:44:00,
2013-01-15 17:48:00,9.7,-2.5,31.01,NE,34,0.0,0.0,57,0.00,,,0.00,Wunderground v.1.15,2013-01-16 00:48:00,
2013-01-15 17:50:00,9.7,-2.5,31.01,NE,34,0.0,0.0,57,0.00,,,0.00,Wunderground v.1.15,2013-01-16 00:50:00,
2013-01-15 17:52:00,9.5,-2.3,31.01,NE,34,0.0,0.0,58,0.00,,,0.00,Wunderground v.1.15,2013-01-16 00:52:00,
2013-01-15 17:54:00,9.5,-2.3,31.01,NE,34,0.0,0.0,58,0.00,,,0.00,Wunderground v.1.15,2013-01-16 00:54:00,
2013-01-15 17:58:00,9.2,-2.6,31.01,NE,34,0.0,0.0,58,0.00,,,0.00,Wunderground v.1.15,2013-01-16 00:58:00,
2013-01-15 18:00:00,9.0,-2.8,31.01,NE,34,0.0,0.0,58,0.00,,,0.00,Wunderground v.1.15,2013-01-16 01:00:00,
2013-01-15 18:04:00,8.8,-2.6,31.02,NE,34,0.0,0.0,59,0.00,,,0.00,Wunderground v.1.15,2013-01-16 01:04:00,
2013-01-15 18:06:00,8.8,-2.6,31.02,NE,34,0.0,0.0,59,0.00,,,0.00,Wunderground v.1.15,2013-01-16 01:06:00,
2013-01-15 18:10:00,8.4,-3.0,31.02,NE,34,0.0,0.0,59,0.00,,,0.00,Wunderground v.1.15,2013-01-16 01:10:00,
2013-01-15 18:12:00,8.4,-3.0,31.02,NE,34,0.0,0.0,59,0.00,,,0.00,Wunderground v.1.15,2013-01-16 01:12:00,
2013-01-15 18:14:00,8.3,-3.1,31.02,NE,34,0.0,0.0,59,0.00,,,0.00,Wunderground v.1.15,2013-01-16 01:14:00,
2013-01-15 18:16:00,8.1,-3.3,31.05,NE,34,0.0,0.0,59,0.00,,,0.00,Wunderground v.1.15,2013-01-16 01:16:00,
2013-01-15 18:22:00,7.4,-3.6,31.05,NE,34,0.0,0.0,60,0.00,,,0.00,Wunderground v.1.15,2013-01-16 01:22:00,
2013-01-15 18:24:00,7.0,-4.3,31.05,NE,34,0.0,0.0,59,0.00,,,0.00,Wunderground v.1.15,2013-01-16 01:24:00,
2013-01-15 18:26:00,6.7,-4.6,31.05,NE,34,0.0,0.0,59,0.00,,,0.00,Wunderground v.1.15,2013-01-16 01:26:00,
2013-01-15 18:28:00,6.3,-4.6,31.05,NE,34,0.0,0.0,60,0.00,,,0.00,Wunderground v.1.15,2013-01-16 01:28:00,
2013-01-15 18:32:00,5.4,-5.5,31.07,NE,40,0.0,0.0,60,0.00,,,0.00,Wunderground v.1.15,2013-01-16 01:32:00,
2013-01-15 18:36:00,4.8,-5.7,31.07,NE,40,0.0,0.0,61,0.00,,,0.00,Wunderground v.1.15,2013-01-16 01:36:00,
2013-01-15 18:40:00,4.1,-6.4,31.07,NE,40,0.0,0.0,61,0.00,,,0.00,Wunderground v.1.15,2013-01-16 01:40:00,
2013-01-15 18:42:00,3.5,-7.3,31.07,NE,40,0.0,0.0,60,0.00,,,0.00,Wunderground v.1.15,2013-01-16 01:42:00,
2013-01-15 18:46:00,2.6,-7.8,31.10,SE,136,0.0,0.0,61,0.00,,,0.00,Wunderground v.1.15,2013-01-16 01:46:00,
2013-01-15 18:48:00,2.6,-7.5,31.10,SE,136,0.0,0.0,62,0.00,,,0.00,Wunderground v.1.15,2013-01-16 01:48:00,
2013-01-15 18:50:00,2.6,-7.5,31.10,SE,136,0.0,0.0,62,0.00,,,0.00,Wunderground v.1.15,2013-01-16 01:50:00,
2013-01-15 18:52:00,2.6,-7.1,31.10,SE,136,0.0,0.0,63,0.00,,,0.00,Wunderground v.1.15,2013-01-16 01:52:00,
2013-01-15 18:56:00,2.8,-7.0,31.10,SE,136,0.0,0.0,63,0.00,,,0.00,Wunderground v.1.15,2013-01-16 01:56:00,
2013-01-15 19:00:00,2.8,-7.0,31.10,SE,136,0.0,0.0,63,0.00,,,0.00,Wunderground v.1.15,2013-01-16 02:00:00,
2013-01-15 19:04:00,2.8,-7.3,31.10,SE,136,0.0,0.0,62,0.00,,,0.00,Wunderground v.1.15,2013-01-16 02:04:00,
2013-01-15 19:06:00,2.6,-7.5,31.10,SE,136,0.0,0.0,62,0.00,,,0.00,Wunderground v.1.15,2013-01-16 02:06:00,
2013-01-15 19:08:00,2.6,-7.5,31.10,SE,136,0.0,0.0,62,0.00,,,0.00,Wunderground v.1.15,2013-01-16 02:08:00,
2013-01-15 19:12:00,2.4,-7.7,31.10,SE,136,0.0,0.0,62,0.00,,,0.00,Wunderground v.1.15,2013-01-16 02:12:00,
2013-01-15 19:14:00,2.2,-7.9,31.10,SE,136,0.0,0.0,62,0.00,,,0.00,Wunderground v.1.15,2013-01-16 02:14:00,
2013-01-15 19:16:00,2.0,-8.0,31.09,SE,136,0.0,0.0,62,0.00,,,0.00,Wunderground v.1.15,2013-01-16 02:16:00,
2013-01-15 19:22:00,2.4,-7.3,31.09,SE,136,0.0,2.0,63,0.00,,,0.00,Wunderground v.1.15,2013-01-16 02:22:00,
2013-01-15 19:24:00,2.4,-7.3,31.09,SE,136,0.0,2.0,63,0.00,,,0.00,Wunderground v.1.15,2013-01-16 02:24:00,
2013-01-15 19:28:00,2.8,-6.6,31.09,SE,136,0.0,2.0,64,0.00,,,0.00,Wunderground v.1.15,2013-01-16 02:28:00,
2013-01-15 19:30:00,3.2,-6.2,31.09,SE,136,0.0,0.0,64,0.00,,,0.00,Wunderground v.1.15,2013-01-16 02:30:00,
2013-01-15 19:32:00,3.2,-6.2,31.09,SE,136,0.0,0.0,64,0.00,,,0.00,Wunderground v.1.15,2013-01-16 02:32:00,
2013-01-15 19:38:00,3.5,-6.3,31.09,SE,136,0.0,0.0,63,0.00,,,0.00,Wunderground v.1.15,2013-01-16 02:38:00,
2013-01-15 19:40:00,3.7,-5.8,31.09,SE,136,0.0,0.0,64,0.00,,,0.00,Wunderground v.1.15,2013-01-16 02:40:00,
2013-01-15 19:44:00,3.9,-5.6,31.09,SE,136,0.0,0.0,64,0.00,,,0.00,Wunderground v.1.15,2013-01-16 02:44:00,
2013-01-15 19:46:00,4.1,-5.4,31.08,SE,136,0.0,0.0,64,0.00,,,0.00,Wunderground v.1.15,2013-01-16 02:46:00,
2013-01-15 19:48:00,4.5,-5.0,31.08,SE,136,0.0,0.0,64,0.00,,,0.00,Wunderground v.1.15,2013-01-16 02:48:00,
2013-01-15 19:50:00,4.7,-4.8,31.08,SE,136,0.0,0.0,64,0.00,,,0.00,Wunderground v.1.15,2013-01-16 02:50:00,
2013-01-15 19:52:00,4.8,-4.7,31.08,SE,136,0.0,1.0,64,0.00,,,0.00,Wunderground v.1.15,2013-01-16 02:52:00,
2013-01-15 19:58:00,5.4,-4.2,31.08,SE,136,0.0,1.0,64,0.00,,,0.00,Wunderground v.1.15,2013-01-16 02:58:00,
2013-01-15 20:04:00,5.8,-4.1,31.08,SE,136,1.0,2.0,63,0.00,,,0.00,Wunderground v.1.15,2013-01-16 03:04:00,
2013-01-15 20:06:00,5.8,-4.1,31.08,SE,136,1.0,2.0,63,0.00,,,0.00,Wunderground v.1.15,2013-01-16 03:06:00,
2013-01-15 20:08:00,5.8,-4.1,31.08,SE,136,1.0,2.0,63,0.00,,,0.00,Wunderground v.1.15,2013-01-16 03:08:00,
2013-01-15 20:12:00,6.1,-4.1,31.08,SE,136,1.0,3.0,62,0.00,,,0.00,Wunderground v.1.15,2013-01-16 03:12:00,
2013-01-15 20:14:00,6.1,-4.1,31.08,SE,136,1.0,3.0,62,0.00,,,0.00,Wunderground v.1.15,2013-01-16 03:14:00,
2013-01-15 20:16:00,6.3,-4.0,31.05,SE,136,1.0,3.0,62,0.00,,,0.00,Wunderground v.1.15,2013-01-16 03:16:00,
2013-01-15 20:20:00,6.7,-3.6,31.05,SE,136,1.0,3.0,62,0.00,,,0.00,Wunderground v.1.15,2013-01-16 03:20:00,
2013-01-15 20:22:00,6.9,-3.4,31.05,SE,136,1.0,1.0,62,0.00,,,0.00,Wunderground v.1.15,2013-01-16 03:22:00,
2013-01-15 20:26:00,7.4,-2.9,31.05,SE,136,0.0,1.0,62,0.00,,,0.00,Wunderground v.1.15,2013-01-16 03:26:00,
2013-01-15 20:28:00,7.6,-2.7,31.05,SE,136,1.0,1.0,62,0.00,,,0.00,Wunderground v.1.15,2013-01-16 03:28:00,
2013-01-15 20:32:00,8.1,-2.6,31.03,SE,136,1.0,1.0,61,0.00,,,0.00,Wunderground v.1.15,2013-01-16 03:32:00,
2013-01-15 20:34:00,8.3,-2.4,31.03,SE,136,1.0,1.0,61,0.00,,,0.00,Wunderground v.1.15,2013-01-16 03:34:00,
2013-01-15 20:36:00,8.4,-2.3,31.03,SE,136,1.0,1.0,61,0.00,,,0.00,Wunderground v.1.15,2013-01-16 03:36:00,
2013-01-15 20:38:00,8.6,-2.1,31.03,SE,136,1.0,1.0,61,0.00,,,0.00,Wunderground v.1.15,2013-01-16 03:38:00,
2013-01-15 20:40:00,8.8,-1.9,31.03,SE,136,0.0,1.0,61,0.00,,,0.00,Wunderground v.1.15,2013-01-16 03:40:00,
2013-01-15 20:46:00,9.3,-1.4,31.02,SE,136,0.0,2.0,61,0.00,,,0.00,Wunderground v.1.15,2013-01-16 03:46:00,
2013-01-15 20:48:00,9.5,-1.3,31.02,SE,136,1.0,2.0,61,0.00,,,0.00,Wunderground v.1.15,2013-01-16 03:48:00,
2013-01-15 20:50:00,9.5,-1.6,31.02,SE,136,1.0,2.0,60,0.00,,,0.00,Wunderground v.1.15,2013-01-16 03:50:00,
2013-01-15 20:52:00,9.5,-2.0,31.02,SE,136,1.0,2.0,59,0.00,,,0.00,Wunderground v.1.15,2013-01-16 03:52:00,
2013-01-15 20:56:00,9.5,-2.0,31.02,SE,136,0.0,2.0,59,0.00,,,0.00,Wunderground v.1.15,2013-01-16 03:56:00,
2013-01-15 20:58:00,9.5,-2.3,31.02,SE,136,0.0,2.0,58,0.00,,,0.00,Wunderground v.1.15,2013-01-16 03:58:00,
2013-01-15 21:00:00,9.5,-2.3,31.01,SE,136,0.0,0.0,58,0.00,,,0.00,Wunderground v.1.15,2013-01-16 04:00:00,
2013-01-15 21:04:00,9.3,-2.5,31.01,SE,136,0.0,0.0,58,0.00,,,0.00,Wunderground v.1.15,2013-01-16 04:04:00,
2013-01-15 21:06:00,9.3,-2.5,31.01,SE,136,0.0,0.0,58,0.00,,,0.00,Wunderground v.1.15,2013-01-16 04:06:00,
2013-01-15 21:08:00,9.3,-2.5,31.01,SE,136,0.0,0.0,58,0.00,,,0.00,Wunderground v.1.15,2013-01-16 04:08:00,
2013-01-15 21:12:00,9.2,-2.6,31.01,SE,136,0.0,0.0,58,0.00,,,0.00,Wunderground v.1.15,2013-01-16 04:12:00,
2013-01-15 21:14:00,9.0,-2.8,31.01,SE,136,0.0,0.0,58,0.00,,,0.00,Wunderground v.1.15,2013-01-16 04:14:00,
2013-01-15 21:20:00,9.0,-2.4,30.97,SE,136,0.0,0.0,59,0.00,,,0.00,Wunderground v.1.15,2013-01-16 04:20:00,
2013-01-15 21:24:00,8.8,-3.0,30.97,SE,136,0.0,0.0,58,0.00,,,0.00,Wunderground v.1.15,2013-01-16 04:24:00,
2013-01-15 21:26:00,8.6,-2.8,30.97,SE,136,0.0,0.0,59,0.00,,,0.00,Wunderground v.1.15,2013-01-16 04:26:00,
2013-01-15 21:28:00,8.4,-3.0,30.97,SE,136,0.0,0.0,59,0.00,,,0.00,Wunderground v.1.15,2013-01-16 04:28:00,
2013-01-15 21:30:00,8.4,-3.0,30.99,SE,136,0.0,0.0,59,0.00,,,0.00,Wunderground v.1.15,2013-01-16 04:30:00,
2013-01-15 21:32:00,8.3,-3.1,30.99,SE,136,0.0,0.0,59,0.00,,,0.00,Wunderground v.1.15,2013-01-16 04:32:00,
2013-01-15 21:34:00,8.3,-3.1,30.99,SE,136,0.0,0.0,59,0.00,,,0.00,Wunderground v.1.15,2013-01-16 04:34:00,
2013-01-15 21:38:00,7.9,-3.1,30.99,SE,136,0.0,0.0,60,0.00,,,0.00,Wunderground v.1.15,2013-01-16 04:38:00,
2013-01-15 21:40:00,7.9,-3.5,30.99,SE,136,0.0,0.0,59,0.00,,,0.00,Wunderground v.1.15,2013-01-16 04:40:00,
2013-01-15 21:44:00,7.6,-3.4,30.99,SE,136,0.0,0.0,60,0.00,,,0.00,Wunderground v.1.15,2013-01-16 04:44:00,
2013-01-15 21:46:00,7.6,-3.1,30.99,SE,136,0.0,0.0,61,0.00,,,0.00,Wunderground v.1.15,2013-01-16 04:46:00,
2013-01-15 21:48:00,7.4,-3.3,30.99,SE,136,0.0,0.0,61,0.00,,,0.00,Wunderground v.1.15,2013-01-16 04:48:00,
2013-01-15 21:52:00,7.0,-3.3,30.99,SE,136,0.0,0.0,62,0.00,,,0.00,Wunderground v.1.15,2013-01-16 04:52:00,
2013-01-15 21:56:00,7.0,-3.3,30.99,SE,136,0.0,0.0,62,0.00,,,0.00,Wunderground v.1.15,2013-01-16 04:56:00,
2013-01-15 21:58:00,6.9,-3.4,30.99,SE,136,0.0,0.0,62,0.00,,,0.00,Wunderground v.1.15,2013-01-16 04:58:00,
2013-01-15 22:02:00,6.7,-3.2,31.00,SE,136,0.0,0.0,63,0.00,,,0.00,Wunderground v.1.15,2013-01-16 05:02:00,
2013-01-15 22:06:00,6.5,-3.1,31.00,SE,136,0.0,0.0,64,0.00,,,0.00,Wunderground v.1.15,2013-01-16 05:06:00,
2013-01-15 22:08:00,6.3,-3.3,31.00,SE,136,0.0,0.0,64,0.00,,,0.00,Wunderground v.1.15,2013-01-16 05:08:00,
2013-01-15 22:10:00,6.1,-3.5,31.00,SE,136,0.0,0.0,64,0.00,,,0.00,Wunderground v.1.15,2013-01-16 05:10:00,
2013-01-15 22:12:00,5.8,-4.1,31.00,SE,136,0.0,0.0,63,0.00,,,0.00,Wunderground v.1.15,2013-01-16 05:12:00,
2013-01-15 22:14:00,5.4,-4.5,31.00,SE,136,0.0,0.0,63,0.00,,,0.00,Wunderground v.1.15,2013-01-16 05:14:00,
2013-01-15 22:18:00,4.8,-5.4,31.00,SE,136,0.0,0.0,62,0.00,,,0.00,Wunderground v.1.15,2013-01-16 05:18:00,
2013-01-15 22:20:00,4.7,-5.5,31.00,SE,136,0.0,0.0,62,0.00,,,0.00,Wunderground v.1.15,2013-01-16 05:20:00,
2013-01-15 22:22:00,4.3,-5.9,31.00,SE,136,0.0,0.0,62,0.00,,,0.00,Wunderground v.1.15,2013-01-16 05:22:00,
2013-01-15 22:26:00,3.9,-6.2,31.00,SE,136,0.0,0.0,62,0.00,,,0.00,Wunderground v.1.15,2013-01-16 05:26:00,
2013-01-15 22:30:00,3.5,-6.6,31.01,SE,136,0.0,0.0,62,0.00,,,0.00,Wunderground v.1.15,2013-01-16 05:30:00,
2013-01-15 22:32:00,3.4,-6.7,31.01,SE,136,0.0,0.0,62,0.00,,,0.00,Wunderground v.1.15,2013-01-16 05:32:00,
2013-01-15 22:34:00,3.2,-6.9,31.01,SE,136,0.0,0.0,62,0.00,,,0.00,Wunderground v.1.15,2013-01-16 05:34:00,
2013-01-15 22:36:00,3.0,-7.1,31.01,SE,136,0.0,0.0,62,0.00,,,0.00,Wunderground v.1.15,2013-01-16 05:36:00,
2013-01-15 22:40:00,2.8,-7.0,31.01,SE,136,0.0,0.0,63,0.00,,,0.00,Wunderground v.1.15,2013-01-16 05:40:00,
2013-01-15 22:42:00,2.8,-7.0,31.01,SE,136,0.0,0.0,63,0.00,,,0.00,Wunderground v.1.15,2013-01-16 05:42:00,
2013-01-15 22:48:00,2.8,-6.6,31.03,SE,136,0.0,0.0,64,0.00,,,0.00,Wunderground v.1.15,2013-01-16 05:48:00,
2013-01-15 22:50:00,2.8,-6.6,31.03,SE,136,0.0,0.0,64,0.00,,,0.00,Wunderground v.1.15,2013-01-16 05:50:00,
2013-01-15 22:52:00,2.8,-6.6,31.03,SE,136,0.0,0.0,64,0.00,,,0.00,Wunderground v.1.15,2013-01-16 05:52:00,
2013-01-15 22:54:00,3.0,-6.4,31.03,SE,136,0.0,0.0,64,0.00,,,0.00,Wunderground v.1.15,2013-01-16 05:54:00,
2013-01-15 22:58:00,3.0,-6.4,31.03,SE,136,0.0,0.0,64,0.00,,,0.00,Wunderground v.1.15,2013-01-16 05:58:00,
2013-01-15 23:00:00,3.0,-6.4,31.04,SE,136,0.0,0.0,64,0.00,,,0.00,Wunderground v.1.15,2013-01-16 06:00:00,
2013-01-15 23:06:00,3.0,-6.4,31.04,SE,136,0.0,0.0,64,0.00,,,0.00,Wunderground v.1.15,2013-01-16 06:06:00,
2013-01-15 23:08:00,3.2,-6.2,31.04,SE,136,0.0,0.0,64,0.00,,,0.00,Wunderground v.1.15,2013-01-16 06:08:00,
2013-01-15 23:10:00,3.2,-6.2,31.04,SE,136,0.0,0.0,64,0.00,,,0.00,Wunderground v.1.15,2013-01-16 06:10:00,
2013-01-15 23:14:00,3.2,-6.2,31.04,SE,136,0.0,0.0,64,0.00,,,0.00,Wunderground v.1.15,2013-01-16 06:14:00,
2013-01-15 23:16:00,3.2,-6.6,31.01,SE,136,0.0,0.0,63,0.00,,,0.00,Wunderground v.1.15,2013-01-16 06:16:00,
2013-01-15 23:18:00,3.2,-6.6,31.01,SE,136,0.0,0.0,63,0.00,,,0.00,Wunderground v.1.15,2013-01-16 06:18:00,
2013-01-15 23:22:00,3.0,-6.8,31.01,SE,136,0.0,0.0,63,0.00,,,0.00,Wunderground v.1.15,2013-01-16 06:22:00,
2013-01-15 23:26:00,3.0,-7.1,31.01,SE,136,0.0,0.0,62,0.00,,,0.00,Wunderground v.1.15,2013-01-16 06:26:00,
2013-01-15 23:28:00,2.8,-7.3,31.01,SE,136,0.0,0.0,62,0.00,,,0.00,Wunderground v.1.15,2013-01-16 06:28:00,
2013-01-15 23:32:00,2.8,-7.0,31.01,SE,136,0.0,0.0,63,0.00,,,0.00,Wunderground v.1.15,2013-01-16 06:32:00,
2013-01-15 23:34:00,2.6,-7.5,31.01,SE,136,0.0,0.0,62,0.00,,,0.00,Wunderground v.1.15,2013-01-16 06:34:00,
2013-01-15 23:36:00,2.4,-7.7,31.01,SE,136,0.0,0.0,62,0.00,,,0.00,Wunderground v.1.15,2013-01-16 06:36:00,
2013-01-15 23:40:00,2.0,-8.0,31.01,SE,136,0.0,0.0,62,0.00,,,0.00,Wunderground v.1.15,2013-01-16 06:40:00,
2013-01-15 23:44:00,1.8,-8.2,31.01,SE,136,0.0,0.0,62,0.00,,,0.00,Wunderground v.1.15,2013-01-16 06:44:00,
2013-01-15 23:48:00,1.7,-8.0,31.03,SE,136,0.0,0.0,63,0.00,,,0.00,Wunderground v.1.15,2013-01-16 06:48:00,
2013-01-15 23:50:00,1.3,-8.7,31.03,SE,136,0.0,0.0,62,0.00,,,0.00,Wunderground v.1.15,2013-01-16 06:50:00,
2013-01-15 23:54:00,0.9,-9.1,31.03,SE,136,0.0,0.0,62,0.00,,,0.00,Wunderground v.1.15,2013-01-16 06:54:00,
2013-01-15 23:56:00,0.7,-9.0,31.03,SE,136,0.0,0.0,63,0.00,,,0.00,Wunderground v.1.15,2013-01-16 06:56:00,
2013-01-15 23:58:00,0.5,-9.1,31.03,SE,137,0.0,0.0,63,0.00,,,0.00,Wunderground v.1.15,2013-01-16 06:58:00,